Weather History for Pipestone, MN

Change the Weather History Date:

Tuesday, February 4, 2014

  Actual Average Record
Temperature  
Mean Temperature 3 °F -  
Max Temperature 8 °F 27 °F 60 °F (2005)
Min Temperature -2 °F 10 °F -11 °F (2007)
Degree Days  
Heating Degree Days 62    
Moisture  
Dew Point -6 °F    
Average Humidity 71    
Maximum Humidity 85    
Minimum Humidity 61    
Precipitation  
Precipitation 0.00 in - - ()
Sea Level Pressure  
Sea Level Pressure 30.37 in    
Wind  
Wind Speed 11 mph (NNE)    
Max Wind Speed 22 mph    
Max Gust Speed 28 mph    
Visibility 9 miles    
Events Snow    
Averages and records for this station are not official NWS values.
T = Trace of Precipitation, MM = Missing Value Source: NWS Daily Summary

Daily Weather History Graph

Daily Weather History Graph

Search for Another Location

Airport:

Trip Planner

Search our weather history database for the weather conditions in past years. The results will help you decide how hot, cold, wet, or windy it might be!

Date:

Astronomy

Feb. 04, 2014 Rise Set
Actual Time 7:38 AM CST 5:39 PM CST
Civil Twilight 7:08 AM CST 6:10 PM CST
Nautical Twilight 6:34 AM CST 6:44 PM CST
Astronomical Twilight 6:00 AM CST 7:18 PM CST
Moon 10:04 AM CST (2/4) 11:49 PM CST (2/4)
Length of Visible Light 11h 01m
Length of Day
10h 00m
Waxing Crescent, 29% of the Moon is Illuminated
Feb 4
Waxing Crescent
Feb 6
First Quarter
Feb 14
Full
Feb 22
Last Quarter
Mar 1
New

Hourly Weather History & Observations

Time (CST) Temp. Windchill Dew Point Humidity Pressure Visibility Wind Dir Wind Speed Gust Speed Precip Events Conditions
12:13 AM 6.8 °F -2.0 °F 1.4 °F 79% 30.28 in 10.0 mi NE 4.6 mph - N/A Snow Light Snow
12:33 AM 8.6 °F 0.1 °F 1.4 °F 73% 30.29 in 10.0 mi NE 4.6 mph - N/A Snow Light Snow
12:53 AM 8.6 °F 2.0 °F 3.2 °F 79% 30.30 in 10.0 mi NE 3.5 mph - N/A Snow Light Snow
1:13 AM 8.6 °F 0.1 °F 3.2 °F 79% 30.30 in 3.0 mi NE 4.6 mph - N/A Snow Light Snow
1:33 AM 8.6 °F 2.0 °F 3.2 °F 79% 30.30 in 4.0 mi NE 3.5 mph - N/A Snow Light Snow
1:53 AM 8.6 °F 0.1 °F 3.2 °F 79% 30.30 in 4.0 mi NE 4.6 mph - N/A Snow Light Snow
2:13 AM 8.6 °F 0.1 °F 5.0 °F 85% 30.30 in 4.0 mi NE 4.6 mph - N/A Snow Light Snow
2:33 AM 8.6 °F 0.1 °F 5.0 °F 85% 30.31 in 5.0 mi NE 4.6 mph - N/A Snow Light Snow
2:53 AM 8.6 °F 2.0 °F 3.2 °F 79% 30.31 in 10.0 mi ENE 3.5 mph - N/A   Overcast
3:13 AM 8.6 °F 0.1 °F 3.2 °F 79% 30.31 in 10.0 mi ENE 4.6 mph - N/A   Overcast
3:33 AM 6.8 °F -3.5 °F 1.4 °F 79% 30.32 in 10.0 mi NE 5.8 mph - N/A   Overcast
3:53 AM 6.8 °F -10.0 °F 1.4 °F 79% 30.32 in 5.0 mi NE 13.8 mph 19.6 mph N/A Snow Light Snow
4:13 AM 3.2 °F -14.6 °F -0.4 °F 85% 30.32 in 10.0 mi NNE 13.8 mph - N/A   Overcast
4:33 AM 3.2 °F -13.9 °F -2.2 °F 78% 30.33 in 10.0 mi NNE 12.7 mph 20.7 mph N/A   Overcast
4:53 AM 1.4 °F -18.8 °F -2.2 °F 85% 30.34 in 10.0 mi NNE 17.3 mph 21.9 mph N/A   Mostly Cloudy
5:13 AM 1.4 °F -16.1 °F -4.0 °F 78% 30.34 in 10.0 mi NNE 12.7 mph 23.0 mph N/A   Mostly Cloudy
5:34 AM 1.4 °F -16.9 °F -4.0 °F 78% 30.34 in 10.0 mi NE 13.8 mph - N/A   Mostly Cloudy
5:53 AM -0.4 °F -21.7 °F -5.8 °F 78% 30.34 in 10.0 mi NE 18.4 mph - N/A   Mostly Cloudy
6:13 AM -0.4 °F -21.7 °F -5.8 °F 78% 30.34 in 7.0 mi NE 18.4 mph 25.3 mph N/A   Overcast
6:33 AM -0.4 °F -21.2 °F -5.8 °F 78% 30.35 in 10.0 mi NE 17.3 mph 21.9 mph N/A   Overcast
6:53 AM -0.4 °F -21.7 °F -5.8 °F 78% 30.35 in 10.0 mi NE 18.4 mph - N/A   Overcast
7:13 AM -0.4 °F -20.5 °F -7.6 °F 72% 30.36 in 10.0 mi NE 16.1 mph 21.9 mph N/A   Overcast
7:33 AM -0.4 °F -22.3 °F -7.6 °F 72% 30.36 in 10.0 mi NE 19.6 mph 24.2 mph N/A   Overcast
7:53 AM -0.4 °F -20.5 °F -7.6 °F 72% 30.36 in 10.0 mi NE 16.1 mph 21.9 mph N/A   Overcast
8:13 AM -0.4 °F -21.2 °F -9.4 °F 66% 30.37 in 10.0 mi NE 17.3 mph 23.0 mph N/A   Overcast
8:33 AM -2.2 °F -23.5 °F -9.4 °F 71% 30.38 in 10.0 mi NE 17.3 mph - N/A   Overcast
8:53 AM -2.2 °F -22.2 °F -9.4 °F 71% 30.38 in 10.0 mi NE 15.0 mph - N/A   Overcast
9:13 AM -0.4 °F -18.4 °F -9.4 °F 66% 30.38 in 10.0 mi NE 12.7 mph 18.4 mph N/A   Overcast
9:33 AM -0.4 °F -20.5 °F -9.4 °F 66% 30.38 in 10.0 mi NE 16.1 mph 23.0 mph N/A   Mostly Cloudy
9:53 AM -0.4 °F -19.9 °F -9.4 °F 66% 30.38 in 10.0 mi NE 15.0 mph 18.4 mph N/A   Overcast
10:13 AM -0.4 °F -19.9 °F -7.6 °F 72% 30.39 in 10.0 mi NE 15.0 mph 20.7 mph N/A   Overcast
10:33 AM -0.4 °F -21.7 °F -7.6 °F 72% 30.38 in 10.0 mi NE 18.4 mph - N/A   Overcast
10:53 AM -0.4 °F -22.8 °F -7.6 °F 72% 30.38 in 10.0 mi NE 20.7 mph 24.2 mph N/A   Overcast
11:13 AM 1.4 °F -21.0 °F -7.6 °F 66% 30.38 in 7.0 mi NE 21.9 mph 26.5 mph N/A   Overcast
11:33 AM 1.4 °F -19.4 °F -7.6 °F 66% 30.38 in 10.0 mi NE 18.4 mph 23.0 mph N/A   Overcast
11:53 AM 1.4 °F -19.4 °F -7.6 °F 66% 30.38 in 10.0 mi NE 18.4 mph 25.3 mph N/A   Overcast
12:13 PM 1.4 °F -18.8 °F -7.6 °F 66% 30.37 in 10.0 mi NE 17.3 mph 23.0 mph N/A   Overcast
12:33 PM 1.4 °F -18.2 °F -7.6 °F 66% 30.36 in 7.0 mi NE 16.1 mph 27.6 mph N/A   Overcast
12:53 PM 1.4 °F -17.6 °F -7.6 °F 66% 30.37 in 10.0 mi NE 15.0 mph - N/A   Overcast
1:13 PM 1.4 °F -18.2 °F -7.6 °F 66% 30.39 in 10.0 mi NE 16.1 mph 25.3 mph N/A   Overcast
1:33 PM 1.4 °F -19.4 °F -7.6 °F 66% 30.39 in 10.0 mi NE 18.4 mph 23.0 mph N/A   Overcast
1:53 PM 1.4 °F -18.8 °F -7.6 °F 66% 30.38 in 10.0 mi NE 17.3 mph - N/A   Overcast
2:13 PM 1.4 °F -18.2 °F -7.6 °F 66% 30.37 in 10.0 mi NNE 16.1 mph 24.2 mph N/A   Overcast
2:33 PM 1.4 °F -19.4 °F -7.6 °F 66% 30.36 in 10.0 mi NNE 18.4 mph 24.2 mph N/A   Mostly Cloudy
2:53 PM 1.4 °F -19.9 °F -7.6 °F 66% 30.36 in 10.0 mi NNE 19.6 mph 24.2 mph N/A   Mostly Cloudy
3:13 PM 1.4 °F -18.8 °F -7.6 °F 66% 30.36 in 10.0 mi NNE 17.3 mph 20.7 mph N/A   Mostly Cloudy
3:33 PM 1.4 °F -16.9 °F -7.6 °F 66% 30.36 in 10.0 mi NNE 13.8 mph 25.3 mph N/A   Scattered Clouds
3:53 PM 1.4 °F -18.8 °F -7.6 °F 66% 30.36 in 10.0 mi NNE 17.3 mph 24.2 mph N/A   Scattered Clouds
4:13 PM 1.4 °F -16.9 °F -7.6 °F 66% 30.37 in 10.0 mi NNE 13.8 mph 25.3 mph N/A   Scattered Clouds
4:32 PM 1.4 °F -18.2 °F -7.6 °F 66% 30.38 in 10.0 mi NNE 16.1 mph 25.3 mph N/A   Scattered Clouds
4:53 PM 1.4 °F -18.8 °F -9.4 °F 61% 30.37 in 10.0 mi NNE 17.3 mph 24.2 mph N/A   Scattered Clouds
5:13 PM -0.4 °F -20.5 °F -9.4 °F 66% 30.39 in 10.0 mi NNE 16.1 mph 20.7 mph N/A   Clear
5:33 PM -0.4 °F -20.5 °F -9.4 °F 66% 30.39 in 10.0 mi NNE 16.1 mph 24.2 mph N/A   Clear
5:53 PM -0.4 °F -17.6 °F -9.4 °F 66% 30.39 in 10.0 mi NNE 11.5 mph 23.0 mph N/A   Clear
6:13 PM -0.4 °F -19.9 °F -9.4 °F 66% 30.39 in 10.0 mi NNE 15.0 mph 24.2 mph N/A   Clear
6:33 PM -0.4 °F -19.2 °F -9.4 °F 66% 30.40 in 10.0 mi NNE 13.8 mph 23.0 mph N/A   Clear
6:53 PM -2.2 °F -20.7 °F -9.4 °F 71% 30.41 in 10.0 mi NNE 12.7 mph 20.7 mph N/A   Scattered Clouds
7:13 PM -2.2 °F -19.9 °F -9.4 °F 71% 30.41 in 10.0 mi NNE 11.5 mph 18.4 mph N/A   Scattered Clouds
7:33 PM -2.2 °F -20.7 °F -9.4 °F 71% 30.41 in 10.0 mi NNE 12.7 mph 18.4 mph N/A   Scattered Clouds
7:53 PM -2.2 °F -22.2 °F -9.4 °F 71% 30.40 in 10.0 mi NNE 15.0 mph 24.2 mph N/A   Scattered Clouds
8:13 PM -2.2 °F -22.2 °F -9.4 °F 71% 30.40 in 10.0 mi NNE 15.0 mph 23.0 mph N/A   Scattered Clouds
8:33 PM -2.2 °F -22.2 °F -9.4 °F 71% 30.41 in 10.0 mi NNE 15.0 mph 24.2 mph N/A   Overcast
8:53 PM -2.2 °F -22.9 °F -9.4 °F 71% 30.41 in 10.0 mi NNE 16.1 mph 21.9 mph N/A   Overcast
9:13 PM -2.2 °F -21.5 °F -9.4 °F 71% 30.41 in 10.0 mi NNE 13.8 mph 21.9 mph N/A   Overcast
9:33 PM -0.4 °F -18.4 °F -9.4 °F 66% 30.42 in 10.0 mi North 12.7 mph 19.6 mph N/A   Overcast
9:53 PM -0.4 °F -17.6 °F -9.4 °F 66% 30.43 in 10.0 mi North 11.5 mph 19.6 mph N/A   Overcast
10:13 PM -0.4 °F -18.4 °F -9.4 °F 66% 30.44 in 10.0 mi North 12.7 mph 20.7 mph N/A   Overcast
10:33 PM -0.4 °F -20.5 °F -9.4 °F 66% 30.43 in 10.0 mi North 16.1 mph 20.7 mph N/A   Overcast
10:53 PM -0.4 °F -17.6 °F -9.4 °F 66% 30.43 in 10.0 mi NNE 11.5 mph 19.6 mph N/A   Mostly Cloudy
11:13 PM -0.4 °F -19.9 °F -9.4 °F 66% 30.44 in 10.0 mi NNE 15.0 mph 20.7 mph N/A   Mostly Cloudy
11:33 PM -0.4 °F -19.9 °F -9.4 °F 66% 30.44 in 10.0 mi NNE 15.0 mph 21.9 mph N/A   Mostly Cloudy
11:53 PM -0.4 °F -21.2 °F -9.4 °F 66% 30.45 in 10.0 mi NNE 17.3 mph 21.9 mph N/A   Scattered Clouds